Change the Weather History Date:

Tuesday, October 23, 2012

  Actual Average Record
Temperature  
Mean Temperature 40 °F -  
Max Temperature 50 °F 66 °F 80 °F (1959)
Min Temperature 28 °F 32 °F 18 °F (1961)
Degree Days  
Heating Degree Days 24    
Moisture  
Dew Point 26 °F    
Average Humidity 58    
Maximum Humidity 79    
Minimum Humidity 35    
Precipitation  
Precipitation 0.00 in - - ()
Sea Level Pressure  
Sea Level Pressure 29.91 in    
Wind  
Wind Speed 6 mph (SW)    
Max Wind Speed 15 mph    
Max Gust Speed -    
Visibility 10 miles    
Events Rain    
Averages and records for this station are not official NWS values.
T = Trace of Precipitation, MM = Missing Value Source: NWS Daily Summary

Daily Weather History Graph

Daily Weather History Graph

Search for Another Location

Airport or City:

Trip Planner

Search our weather history database for the weather conditions in past years. The results will help you decide how hot, cold, wet, or windy it might be!

Date:

Astronomy

Oct. 23, 2012 Rise Set
Actual Time 7:14 AM PDT 6:02 PM PDT
Civil Twilight 6:46 AM PDT 6:30 PM PDT
Nautical Twilight 6:14 AM PDT 7:01 PM PDT
Astronomical Twilight 5:43 AM PDT 7:33 PM PDT
Moon 2:48 PM PDT (10/23) 1:11 AM PDT (10/23)
Length of Visible Light 11h 43m
Length of Day
10h 48m
Waxing Gibbous, 67% of the Moon is Illuminated
Oct 23
Waxing Gibbous
Oct 29
Full
Nov 6
Last Quarter
Nov 13
New
Nov 20
First Quarter

Hourly Weather History & Observations

Time (PDT) Temp. Windchill Dew Point Humidity Pressure Visibility Wind Dir Wind Speed Gust Speed Precip Events Conditions
12:53 AM 34.0 °F 29.8 °F 21.9 °F 61% 29.79 in 10.0 mi SW 4.6 mph - N/A   Mostly Cloudy
1:53 AM 33.1 °F - 24.1 °F 70% 29.80 in 10.0 mi Calm Calm - N/A   Mostly Cloudy
2:53 AM 36.0 °F 32.1 °F 23.0 °F 59% 29.79 in 10.0 mi SSW 4.6 mph - N/A   Overcast
3:53 AM 37.0 °F 31.6 °F 25.0 °F 62% 29.79 in 10.0 mi SSW 6.9 mph - N/A   Overcast
4:53 AM 37.9 °F 33.5 °F 27.0 °F 65% 29.81 in 10.0 mi SSW 5.8 mph - N/A   Overcast
5:53 AM 39.0 °F 33.4 °F 32.0 °F 76% 29.86 in 10.0 mi SW 8.1 mph - 0.00 in Rain Light Rain
6:53 AM 39.9 °F 35.8 °F 30.0 °F 68% 29.88 in 10.0 mi West 5.8 mph - 0.00 in   Overcast
7:53 AM 37.9 °F 32.7 °F 32.0 °F 79% 29.93 in 10.0 mi East 6.9 mph - N/A   Overcast
8:53 AM 42.1 °F 39.2 °F 28.9 °F 60% 29.95 in 10.0 mi WSW 4.6 mph - N/A   Overcast
10:53 AM 46.0 °F 39.9 °F 25.0 °F 44% 29.97 in 10.0 mi WSW 13.8 mph - N/A   Overcast
11:53 AM 46.9 °F - 24.1 °F 41% 29.96 in 10.0 mi West 15.0 mph - N/A   Overcast
12:53 PM 48.0 °F - 21.9 °F 36% 29.95 in 10.0 mi WSW 8.1 mph - N/A   Overcast
1:53 PM 48.9 °F - 21.9 °F 35% 29.92 in 10.0 mi Calm Calm - N/A   Overcast
2:53 PM 48.9 °F - 26.1 °F 41% 29.92 in 10.0 mi ENE 8.1 mph - N/A   Overcast
3:53 PM 48.0 °F - 26.1 °F 42% 29.93 in 10.0 mi ENE 11.5 mph - N/A   Overcast
4:53 PM 46.0 °F 41.4 °F 28.9 °F 51% 29.94 in 10.0 mi East 9.2 mph - N/A   Overcast
5:53 PM 43.0 °F 39.5 °F 30.0 °F 60% 29.94 in 10.0 mi ENE 5.8 mph - N/A   Mostly Cloudy
6:53 PM 42.1 °F 37.7 °F 28.9 °F 60% 29.95 in 10.0 mi NNE 6.9 mph - N/A   Overcast
7:53 PM 42.1 °F 40.2 °F 28.9 °F 60% 29.97 in 10.0 mi West 3.5 mph - N/A   Overcast
8:53 PM 39.0 °F 32.8 °F 26.1 °F 60% 29.96 in 10.0 mi NW 9.2 mph - N/A   Partly Cloudy
9:53 PM 33.1 °F 27.7 °F 25.0 °F 72% 29.99 in 10.0 mi ESE 5.8 mph - N/A   Clear
11:53 PM 28.9 °F - 23.0 °F 78% 29.99 in 10.0 mi Calm Calm - N/A   Clear